Back to catalog

ATLAS 5 CENTAUR R/B

AliveMEO
NORAD 46919·ROCKET BODY·🇺🇸 United States

Launched Nov 13, 2020 from Cape Canaveral Space Force Station

Loading…

Next Passes (next 24 hours)

TLE

FreshSource: Space-Track

Epoch: Sep 14, 2026, 12:29 UTC

1 46919U 20083B   26257.52033782 -.00000033  00000-0  00000-0 0  9991
2 46919  58.8905 307.5730 0134297 232.3097 126.5285  3.86388231 48938

Track ATLAS 5 CENTAUR R/B in real time with AllMySat

Download on the App Store